Youngstown, OH

3:45 PM EDT on August 17, 2017 (GMT -0400)
Youngstown-Warren Regional

Weather History for KYNG - May, 2014

Change the Weather History Date:

Tuesday, May 20, 2014

  Actual Average Record
Temperature  
Mean Temperature 60 °F 59 °F  
Max Temperature 72 °F 70 °F 91 °F (1934)
Min Temperature 47 °F 48 °F 29 °F (2002)
Degree Days  
Heating Degree Days 5 7  
Month to date heating degree days 174 187  
Since 1 July heating degree days 6796 6214  
Cooling Degree Days 0 1  
Month to date cooling degree days 32 13  
Year to date cooling degree days 32 22  
Growing Degree Days 9 (Base 50)    
Moisture  
Dew Point 45 °F    
Average Humidity 62    
Maximum Humidity 86    
Minimum Humidity 37    
Precipitation  
Precipitation T in 0.13 in 1.12 in (1986)
Month to date precipitation 3.45 2.36  
Year to date precipitation 14.99 13.36  
Snow  
Snow 0.00 in 0.00 in - ()
Month to date snowfall T 0.0  
Since 1 July snowfall 90.1 62.7  
Snow Depth 0.00 in    
Sea Level Pressure  
Sea Level Pressure 30.09 in    
Wind  
Wind Speed 7 mph (SSE)    
Max Wind Speed 14 mph    
Max Gust Speed 23 mph    
Visibility 10 miles    
Events Rain    
T = Trace of Precipitation, MM = Missing Value Source: NWS Daily Summary

Daily Weather History Graph

Daily Weather History Graph

Search for Another Location

Airport or City:

Trip Planner

Search our weather history database for the weather conditions in past years. The results will help you decide how hot, cold, wet, or windy it might be!

Date:

Astronomy

May. 20, 2014 Rise Set
Actual Time 5:59 AM EDT 8:39 PM EDT
Civil Twilight 5:27 AM EDT 9:11 PM EDT
Nautical Twilight 4:47 AM EDT 9:51 PM EDT
Astronomical Twilight 4:02 AM EDT 10:37 PM EDT
Moon 1:06 AM EDT (5/20) 12:06 PM EDT (5/20)
Length of Visible Light 15h 43m
Length of Day
14h 39m
Waning Gibbous, 60% of the Moon is Illuminated
May 20
Waning Gibbous
May 21
Last Quarter
May 28
New
Jun 5
First Quarter
Jun 13
Full

Hourly Weather History & Observations

Time (EDT) Temp. Dew Point Humidity Pressure Visibility Wind Dir Wind Speed Gust Speed Precip Events Conditions
12:51 AM 46.9 °F 42.1 °F 83% 30.21 in 10.0 mi East 4.6 mph - N/A   Overcast
1:51 AM 48.9 °F 43.0 °F 80% 30.21 in 10.0 mi East 5.8 mph - N/A   Overcast
2:51 AM 48.0 °F 41.0 °F 77% 30.21 in 10.0 mi Calm Calm - N/A   Overcast
3:51 AM 50.0 °F 42.1 °F 74% 30.23 in 10.0 mi Calm Calm - N/A   Overcast
4:51 AM 50.0 °F 43.0 °F 77% 30.19 in 10.0 mi SE 6.9 mph - N/A   Clear
5:51 AM 54.0 °F 37.9 °F 55% 30.19 in 10.0 mi SSE 5.8 mph - N/A   Scattered Clouds
6:51 AM 55.9 °F 37.9 °F 51% 30.19 in 10.0 mi South 5.8 mph - N/A   Overcast
7:51 AM 55.9 °F 42.1 °F 60% 30.17 in 10.0 mi ESE 6.9 mph - 0.00 in Rain Light Rain
8:51 AM 57.9 °F 41.0 °F 53% 30.17 in 10.0 mi SE 5.8 mph - 0.00 in   Overcast
9:51 AM 62.1 °F 41.0 °F 46% 30.16 in 10.0 mi SSE 6.9 mph - N/A   Overcast
10:51 AM 64.0 °F 41.0 °F 43% 30.14 in 10.0 mi SSE 10.4 mph - N/A   Overcast
11:51 AM 64.9 °F 39.9 °F 40% 30.12 in 10.0 mi SSE 9.2 mph - N/A   Overcast
12:51 PM 64.0 °F 37.0 °F 37% 30.09 in 10.0 mi SSE 9.2 mph 17.3 mph 0.00 in   Overcast
1:51 PM 64.0 °F 37.0 °F 37% 30.06 in 10.0 mi SSE 10.4 mph - N/A   Overcast
2:51 PM 66.0 °F 39.9 °F 38% 30.04 in 10.0 mi SE 8.1 mph - N/A   Overcast
3:51 PM 71.1 °F 44.1 °F 38% 30.01 in 10.0 mi SE 10.4 mph - N/A   Mostly Cloudy
4:51 PM 69.8 °F 46.4 °F 43% 29.99 in 10.0 mi ESE 6.9 mph - N/A   Overcast
5:51 PM 70.0 °F 46.9 °F 44% 29.98 in 10.0 mi ESE 8.1 mph - N/A   Overcast
6:51 PM 70.0 °F 50.0 °F 49% 29.97 in 10.0 mi SSW 8.1 mph - N/A   Overcast
7:51 PM 70.0 °F 55.0 °F 59% 29.97 in 10.0 mi SW 8.1 mph - N/A   Mostly Cloudy
8:51 PM 66.9 °F 55.0 °F 66% 29.96 in 10.0 mi SSW 4.6 mph - N/A   Scattered Clouds
9:51 PM 64.9 °F 55.0 °F 70% 29.96 in 10.0 mi South 4.6 mph - N/A   Scattered Clouds
10:51 PM 64.9 °F 55.9 °F 73% 29.96 in 10.0 mi South 6.9 mph - N/A   Mostly Cloudy
11:51 PM 64.0 °F 57.0 °F 78% 29.96 in 10.0 mi South 4.6 mph - N/A   Mostly Cloudy